Location: Gilevgi
(36.8751°N, 30.0581°E)
Time: 20:15:01
(UTC+00:00)

OAO 1 - Pass Details

Date: 11 December 2025
Orbit: 772 x 781 km, 35.0° (Epoch: 11 January)

Event Time Altitude Azimuth Distance (km) Brightness Sun altitude
Rises 16:46:55 0° 265° (W) 3,251 9.2 -23.9°
Reaches altitude 10° 16:49:24 10° 264° (W) 2,324 8.1 -24.4°
Maximum altitude 16:54:53 75° 180° (S) 806 4.5 -25.5°
Enters shadow 16:55:23 69° 135° (SE) 830 4.4 -25.6°
